TimeCDT,TemperatureF,Dew PointF,Humidity,Sea Level PressureIn,VisibilityMPH,Wind Direction,Wind SpeedMPH,Gust SpeedMPH,PrecipitationIn,Events,Conditions,WindDirDegrees,DateUTC
12:51 AM,64.0,57.9,80,29.94,10.0,SE,8.1,-,N/A,,Partly Cloudy,130,2013-04-13 05:51:00
1:51 AM,63.0,57.9,84,29.92,10.0,ESE,5.8,-,N/A,,Partly Cloudy,110,2013-04-13 06:51:00
2:51 AM,63.0,57.0,81,29.91,10.0,ESE,6.9,-,N/A,,Mostly Cloudy,120,2013-04-13 07:51:00
3:51 AM,64.0,59.0,84,29.90,10.0,East,4.6,-,N/A,,Scattered Clouds,90,2013-04-13 08:51:00
4:51 AM,64.9,60.1,84,29.89,10.0,East,6.9,-,N/A,,Scattered Clouds,80,2013-04-13 09:51:00
5:51 AM,64.9,60.1,84,29.88,10.0,East,6.9,-,N/A,,Partly Cloudy,90,2013-04-13 10:51:00
6:51 AM,64.4,60.8,88,29.89,10.0,East,6.9,-,N/A,,Scattered Clouds,80,2013-04-13 11:51:00
7:51 AM,66.0,62.1,87,29.88,10.0,East,6.9,-,N/A,,Scattered Clouds,100,2013-04-13 12:51:00
8:51 AM,72.0,63.0,73,29.88,10.0,East,11.5,-,N/A,,Partly Cloudy,90,2013-04-13 13:51:00
9:51 AM,75.0,62.1,64,29.88,10.0,East,17.3,-,N/A,,Scattered Clouds,90,2013-04-13 14:51:00
10:51 AM,77.0,61.0,58,29.88,10.0,East,18.4,25.3,N/A,,Scattered Clouds,100,2013-04-13 15:51:00
11:51 AM,78.1,61.0,56,29.88,10.0,East,21.9,-,N/A,,Mostly Cloudy,100,2013-04-13 16:51:00
12:51 PM,78.1,61.0,56,29.86,10.0,East,19.6,27.6,N/A,,Mostly Cloudy,100,2013-04-13 17:51:00
1:51 PM,77.0,60.1,56,29.84,10.0,East,21.9,-,N/A,,Mostly Cloudy,100,2013-04-13 18:51:00
2:51 PM,80.1,59.0,48,29.81,10.0,East,21.9,29.9,N/A,,Scattered Clouds,100,2013-04-13 19:51:00
3:51 PM,80.1,59.0,48,29.79,10.0,East,23.0,28.8,N/A,,Scattered Clouds,100,2013-04-13 20:51:00
4:51 PM,75.9,59.0,56,29.79,10.0,East,21.9,27.6,N/A,,Scattered Clouds,90,2013-04-13 21:51:00
5:51 PM,73.9,59.0,59,29.80,10.0,ESE,19.6,-,N/A,,Mostly Cloudy,110,2013-04-13 22:51:00
6:51 PM,73.9,59.0,59,29.75,10.0,East,21.9,-,N/A,,Partly Cloudy,100,2013-04-13 23:51:00
7:51 PM,72.0,60.1,66,29.77,10.0,East,13.8,-,N/A,,Scattered Clouds,100,2013-04-14 00:51:00
8:51 PM,72.0,61.0,68,29.80,10.0,ESE,12.7,-,N/A,,Mostly Cloudy,110,2013-04-14 01:51:00
9:51 PM,71.1,61.0,70,29.80,10.0,ESE,11.5,-,N/A,,Partly Cloudy,110,2013-04-14 02:51:00
10:51 PM,70.0,61.0,73,29.81,10.0,East,6.9,-,N/A,,Partly Cloudy,90,2013-04-14 03:51:00
11:51 PM,68.0,61.0,78,29.79,10.0,East,5.8,-,N/A,,Partly Cloudy,100,2013-04-14 04:51:00